Time,TemperatureF,DewpointF,PressureIn,WindDirection,WindDirectionDegrees,WindSpeedMPH,WindSpeedGustMPH,Humidity,HourlyPrecipIn,Conditions,Clouds,dailyrainin,SoftwareType,DateUTC
2013-06-19 00:01:00,70.5,0.0,0.00,NNW,343,2.8,5.1,0,0.00,,,0.00,WUHU216PEETBRO,2013-06-19 05:01:00,
2013-06-19 00:06:00,70.5,0.0,0.00,NNW,347,0.0,5.0,0,0.00,,,0.00,WUHU216PEETBRO,2013-06-19 05:06:00,
2013-06-19 00:11:00,70.5,0.0,0.00,NNW,347,0.0,4.0,0,0.00,,,0.00,WUHU216PEETBRO,2013-06-19 05:11:00,
2013-06-19 00:16:00,70.2,0.0,0.00,NNW,347,0.0,0.0,0,0.00,,,0.00,WUHU216PEETBRO,2013-06-19 05:16:00,
2013-06-19 00:21:00,70.2,0.0,0.00,NNW,347,0.0,0.0,0,0.00,,,0.00,WUHU216PEETBRO,2013-06-19 05:21:00,
2013-06-19 00:26:00,70.2,0.0,0.00,NNW,347,0.0,0.0,0,0.00,,,0.00,WUHU216PEETBRO,2013-06-19 05:26:00,
2013-06-19 00:31:00,70.5,0.0,0.00,NNW,347,0.0,0.0,0,0.00,,,0.00,WUHU216PEETBRO,2013-06-19 05:31:00,
2013-06-19 00:36:00,70.8,0.0,0.00,NNW,347,0.0,0.0,0,0.00,,,0.00,WUHU216PEETBRO,2013-06-19 05:36:00,
2013-06-19 00:41:00,70.5,0.0,0.00,NNW,347,0.0,0.0,0,0.00,,,0.00,WUHU216PEETBRO,2013-06-19 05:41:00,
2013-06-19 00:45:00,70.5,0.0,0.00,NNW,347,0.0,0.0,0,0.00,,,0.00,WUHU216PEETBRO,2013-06-19 05:45:00,
2013-06-19 00:50:00,70.2,0.0,0.00,NNW,347,0.0,0.0,0,0.00,,,0.00,WUHU216PEETBRO,2013-06-19 05:50:00,
2013-06-19 00:55:00,70.5,0.0,0.00,NNW,347,0.0,0.0,0,0.00,,,0.00,WUHU216PEETBRO,2013-06-19 05:55:00,
2013-06-19 01:00:00,70.2,0.0,0.00,NNW,347,0.0,0.0,0,0.00,,,0.00,WUHU216PEETBRO,2013-06-19 06:00:00,
2013-06-19 01:05:00,70.5,0.0,0.00,NNW,347,0.0,0.0,0,0.00,,,0.00,WUHU216PEETBRO,2013-06-19 06:05:00,
2013-06-19 01:10:00,70.2,0.0,0.00,NNW,347,0.0,0.0,0,0.00,,,0.00,WUHU216PEETBRO,2013-06-19 06:10:00,
2013-06-19 01:15:00,70.5,0.0,0.00,NNW,347,0.0,0.0,0,0.00,,,0.00,WUHU216PEETBRO,2013-06-19 06:15:00,
2013-06-19 01:20:00,70.8,0.0,0.00,NNW,347,0.0,0.0,0,0.00,,,0.00,WUHU216PEETBRO,2013-06-19 06:20:00,
2013-06-19 01:25:00,70.5,0.0,0.00,NNW,347,0.0,0.0,0,0.00,,,0.00,WUHU216PEETBRO,2013-06-19 06:25:00,
2013-06-19 01:30:00,70.2,0.0,0.00,NNW,347,0.0,0.0,0,0.00,,,0.00,WUHU216PEETBRO,2013-06-19 06:30:00,
2013-06-19 01:35:00,70.2,0.0,0.00,NNW,347,0.0,0.0,0,0.00,,,0.00,WUHU216PEETBRO,2013-06-19 06:35:00,
2013-06-19 01:40:00,70.5,0.0,0.00,NNW,347,0.0,0.0,0,0.00,,,0.00,WUHU216PEETBRO,2013-06-19 06:40:00,
2013-06-19 01:45:00,69.8,0.0,0.00,NNW,347,0.0,0.0,0,0.00,,,0.00,WUHU216PEETBRO,2013-06-19 06:45:00,
2013-06-19 01:50:00,70.3,0.0,0.00,NNW,347,0.0,0.0,0,0.00,,,0.00,WUHU216PEETBRO,2013-06-19 06:50:00,
2013-06-19 01:55:00,70.2,0.0,0.00,NNW,347,0.0,0.0,0,0.00,,,0.00,WUHU216PEETBRO,2013-06-19 06:55:00,
2013-06-19 02:00:00,69.8,0.0,0.00,NNW,347,0.0,0.0,0,0.00,,,0.00,WUHU216PEETBRO,2013-06-19 07:00:00,
2013-06-19 02:05:00,70.5,0.0,0.00,NNW,345,0.0,4.3,0,0.00,,,0.00,WUHU216PEETBRO,2013-06-19 07:05:00,
2013-06-19 02:10:00,70.5,0.0,0.00,NNW,340,1.9,4.3,0,0.00,,,0.00,WUHU216PEETBRO,2013-06-19 07:10:00,
2013-06-19 02:15:00,70.5,0.0,0.00,North,357,0.0,3.2,0,0.00,,,0.00,WUHU216PEETBRO,2013-06-19 07:15:00,
2013-06-19 02:20:00,70.5,0.0,0.00,NNW,341,0.0,3.2,0,0.00,,,0.00,WUHU216PEETBRO,2013-06-19 07:20:00,
2013-06-19 02:25:00,70.5,0.0,0.00,North,1,1.3,1.6,0,0.00,,,0.00,WUHU216PEETBRO,2013-06-19 07:25:00,
2013-06-19 02:30:00,69.5,0.0,0.00,NW,323,0.0,2.5,0,0.00,,,0.00,WUHU216PEETBRO,2013-06-19 07:30:00,
2013-06-19 02:35:00,69.5,0.0,0.00,NW,323,0.0,2.5,0,0.00,,,0.00,WUHU216PEETBRO,2013-06-19 07:35:00,
2013-06-19 02:40:00,70.2,0.0,0.00,NW,323,0.0,0.0,0,0.00,,,0.00,WUHU216PEETBRO,2013-06-19 07:40:00,
2013-06-19 02:45:00,70.5,0.0,0.00,NW,323,0.0,0.0,0,0.00,,,0.00,WUHU216PEETBRO,2013-06-19 07:45:00,
2013-06-19 02:50:00,70.5,0.0,0.00,NW,323,0.0,0.0,0,0.00,,,0.00,WUHU216PEETBRO,2013-06-19 07:50:00,
2013-06-19 02:55:00,70.2,0.0,0.00,NW,323,0.0,0.0,0,0.00,,,0.00,WUHU216PEETBRO,2013-06-19 07:55:00,
2013-06-19 03:00:00,70.8,0.0,0.00,NW,323,0.0,0.0,0,0.00,,,0.00,WUHU216PEETBRO,2013-06-19 08:00:00,
2013-06-19 03:05:00,70.5,0.0,0.00,NW,323,0.0,0.0,0,0.00,,,0.00,WUHU216PEETBRO,2013-06-19 08:05:00,
2013-06-19 03:10:00,70.5,0.0,0.00,NW,323,0.0,0.0,0,0.00,,,0.00,WUHU216PEETBRO,2013-06-19 08:10:00,
2013-06-19 03:15:00,70.5,0.0,0.00,NW,323,0.0,0.0,0,0.00,,,0.00,WUHU216PEETBRO,2013-06-19 08:15:00,
2013-06-19 03:20:00,70.5,0.0,0.00,NW,323,0.0,0.0,0,0.00,,,0.00,WUHU216PEETBRO,2013-06-19 08:20:00,
2013-06-19 03:25:00,70.2,0.0,0.00,NW,323,0.0,0.0,0,0.00,,,0.00,WUHU216PEETBRO,2013-06-19 08:25:00,
2013-06-19 03:30:00,70.2,0.0,0.00,NW,323,0.0,0.0,0,0.00,,,0.00,WUHU216PEETBRO,2013-06-19 08:30:00,
2013-06-19 03:35:00,70.5,0.0,0.00,NW,323,0.0,0.0,0,0.00,,,0.00,WUHU216PEETBRO,2013-06-19 08:35:00,
2013-06-19 03:40:00,70.2,0.0,0.00,NW,323,0.0,0.0,0,0.00,,,0.00,WUHU216PEETBRO,2013-06-19 08:40:00,
2013-06-19 03:45:00,70.5,0.0,0.00,NW,323,0.0,0.0,0,0.00,,,0.00,WUHU216PEETBRO,2013-06-19 08:45:00,
2013-06-19 03:50:00,70.2,0.0,0.00,NW,323,0.0,0.0,0,0.00,,,0.00,WUHU216PEETBRO,2013-06-19 08:50:00,
2013-06-19 03:55:00,70.5,0.0,0.00,NW,323,0.0,0.0,0,0.00,,,0.00,WUHU216PEETBRO,2013-06-19 08:55:00,
2013-06-19 04:00:00,70.5,0.0,0.00,NW,323,0.0,0.0,0,0.00,,,0.00,WUHU216PEETBRO,2013-06-19 09:00:00,
2013-06-19 04:05:00,70.5,0.0,0.00,NW,323,0.0,0.0,0,0.00,,,0.00,WUHU216PEETBRO,2013-06-19 09:05:00,
2013-06-19 04:10:00,70.5,0.0,0.00,NW,323,0.0,0.3,0,0.00,,,0.00,WUHU216PEETBRO,2013-06-19 09:10:00,
2013-06-19 04:15:00,70.5,0.0,0.00,SW,232,0.0,0.9,0,0.00,,,0.00,WUHU216PEETBRO,2013-06-19 09:15:00,
2013-06-19 04:20:00,70.5,0.0,0.00,SW,232,0.0,0.9,0,0.00,,,0.00,WUHU216PEETBRO,2013-06-19 09:20:00,
2013-06-19 04:25:00,70.5,0.0,0.00,NNW,347,0.0,1.1,0,0.00,,,0.00,WUHU216PEETBRO,2013-06-19 09:25:00,
2013-06-19 04:30:00,70.8,0.0,0.00,NNW,347,0.0,1.1,0,0.00,,,0.00,WUHU216PEETBRO,2013-06-19 09:30:00,
2013-06-19 04:35:00,70.5,0.0,0.00,NNW,334,0.0,2.2,0,0.00,,,0.00,WUHU216PEETBRO,2013-06-19 09:35:00,
2013-06-19 04:40:00,70.2,0.0,0.00,NNW,340,0.0,2.2,0,0.00,,,0.00,WUHU216PEETBRO,2013-06-19 09:40:00,
2013-06-19 04:45:00,70.5,0.0,0.00,North,350,0.0,2.3,0,0.00,,,0.00,WUHU216PEETBRO,2013-06-19 09:45:00,
2013-06-19 04:50:00,70.5,0.0,0.00,NNW,343,1.9,3.5,0,0.00,,,0.00,WUHU216PEETBRO,2013-06-19 09:50:00,
2013-06-19 04:55:00,70.2,0.0,0.00,NNW,337,0.0,3.5,0,0.00,,,0.00,WUHU216PEETBRO,2013-06-19 09:55:00,
2013-06-19 05:00:00,70.2,0.0,0.00,NNW,337,0.0,1.7,0,0.00,,,0.00,WUHU216PEETBRO,2013-06-19 10:00:00,
2013-06-19 05:05:00,70.5,0.0,0.00,NNW,337,0.0,0.0,0,0.00,,,0.00,WUHU216PEETBRO,2013-06-19 10:05:00,
2013-06-19 05:10:00,70.2,0.0,0.00,NNW,337,0.0,0.0,0,0.00,,,0.00,WUHU216PEETBRO,2013-06-19 10:10:00,
2013-06-19 05:15:00,69.5,0.0,0.00,NNW,337,0.0,0.0,0,0.00,,,0.00,WUHU216PEETBRO,2013-06-19 10:15:00,
2013-06-19 05:20:00,69.6,0.0,0.00,NNW,337,0.0,0.0,0,0.00,,,0.00,WUHU216PEETBRO,2013-06-19 10:20:00,
2013-06-19 05:25:00,69.5,0.0,0.00,NNW,337,0.0,0.0,0,0.00,,,0.00,WUHU216PEETBRO,2013-06-19 10:25:00,
2013-06-19 05:30:00,70.0,0.0,0.00,NNW,337,0.0,0.0,0,0.00,,,0.00,WUHU216PEETBRO,2013-06-19 10:30:00,
2013-06-19 05:35:00,69.5,0.0,0.00,NNW,337,0.0,0.0,0,0.00,,,0.00,WUHU216PEETBRO,2013-06-19 10:35:00,
2013-06-19 05:40:00,69.5,0.0,0.00,NNW,337,0.0,0.0,0,0.00,,,0.00,WUHU216PEETBRO,2013-06-19 10:40:00,
2013-06-19 05:45:00,68.6,0.0,0.00,NNW,337,0.0,0.0,0,0.00,,,0.00,WUHU216PEETBRO,2013-06-19 10:45:00,
2013-06-19 05:50:00,69.3,0.0,0.00,NNW,337,0.0,0.0,0,0.00,,,0.00,WUHU216PEETBRO,2013-06-19 10:50:00,
2013-06-19 05:55:00,69.3,0.0,0.00,NNW,337,0.0,0.0,0,0.00,,,0.00,WUHU216PEETBRO,2013-06-19 10:55:00,
2013-06-19 06:00:00,69.3,0.0,0.00,NNW,337,0.0,0.0,0,0.00,,,0.00,WUHU216PEETBRO,2013-06-19 11:00:00,
2013-06-19 06:05:00,69.5,0.0,0.00,NNW,337,0.0,0.0,0,0.00,,,0.00,WUHU216PEETBRO,2013-06-19 11:05:00,
2013-06-19 06:10:00,69.5,0.0,0.00,NNW,337,0.0,0.0,0,0.00,,,0.00,WUHU216PEETBRO,2013-06-19 11:10:00,
2013-06-19 06:15:00,69.5,0.0,0.00,NNW,337,0.0,0.0,0,0.00,,,0.00,WUHU216PEETBRO,2013-06-19 11:15:00,
2013-06-19 06:20:00,69.5,0.0,0.00,NNW,337,0.0,0.0,0,0.00,,,0.00,WUHU216PEETBRO,2013-06-19 11:20:00,
2013-06-19 06:25:00,69.5,0.0,0.00,NNW,337,0.0,0.0,0,0.00,,,0.00,WUHU216PEETBRO,2013-06-19 11:25:00,
2013-06-19 06:30:00,69.8,0.0,0.00,NNW,337,0.0,0.0,0,0.00,,,0.00,WUHU216PEETBRO,2013-06-19 11:30:00,
2013-06-19 06:35:00,69.8,0.0,0.00,NNW,337,0.0,0.0,0,0.00,,,0.00,WUHU216PEETBRO,2013-06-19 11:35:00,
2013-06-19 06:40:00,69.8,0.0,0.00,NNW,337,0.0,0.0,0,0.00,,,0.00,WUHU216PEETBRO,2013-06-19 11:40:00,
2013-06-19 06:45:00,70.2,0.0,0.00,NNW,337,0.0,0.0,0,0.00,,,0.00,WUHU216PEETBRO,2013-06-19 11:45:00,
2013-06-19 06:50:00,69.8,0.0,0.00,NNW,337,0.0,0.0,0,0.00,,,0.00,WUHU216PEETBRO,2013-06-19 11:50:00,
2013-06-19 06:55:00,70.5,0.0,0.00,NNW,337,0.0,0.0,0,0.00,,,0.00,WUHU216PEETBRO,2013-06-19 11:55:00,
2013-06-19 07:00:00,70.5,0.0,0.00,NNW,337,0.0,0.0,0,0.00,,,0.00,WUHU216PEETBRO,2013-06-19 12:00:00,
2013-06-19 07:05:00,70.5,0.0,0.00,NNW,337,0.0,0.0,0,0.00,,,0.00,WUHU216PEETBRO,2013-06-19 12:05:00,
2013-06-19 07:10:00,70.5,0.0,0.00,NNW,337,0.0,0.0,0,0.00,,,0.00,WUHU216PEETBRO,2013-06-19 12:10:00,
2013-06-19 07:15:00,70.5,0.0,0.00,NNW,337,0.0,0.0,0,0.00,,,0.00,WUHU216PEETBRO,2013-06-19 12:15:00,
2013-06-19 07:20:00,71.7,0.0,0.00,NNW,337,0.0,0.0,0,0.00,,,0.00,WUHU216PEETBRO,2013-06-19 12:20:00,
2013-06-19 07:25:00,71.4,0.0,0.00,NNW,337,0.0,0.0,0,0.00,,,0.00,WUHU216PEETBRO,2013-06-19 12:25:00,
2013-06-19 07:30:00,71.4,0.0,0.00,NNW,337,0.0,0.0,0,0.00,,,0.00,WUHU216PEETBRO,2013-06-19 12:30:00,
2013-06-19 07:35:00,72.3,0.0,0.00,NNW,337,0.0,0.0,0,0.00,,,0.00,WUHU216PEETBRO,2013-06-19 12:35:00,
2013-06-19 07:40:00,72.3,0.0,0.00,NNW,337,0.0,0.0,0,0.00,,,0.00,WUHU216PEETBRO,2013-06-19 12:40:00,
2013-06-19 07:45:00,72.3,0.0,0.00,East,80,4.0,4.7,0,0.00,,,0.00,WUHU216PEETBRO,2013-06-19 12:45:00,
2013-06-19 07:50:00,73.4,0.0,0.00,North,8,2.0,4.7,0,0.00,,,0.00,WUHU216PEETBRO,2013-06-19 12:50:00,
2013-06-19 07:55:00,74.6,0.0,0.00,North,1,3.2,5.0,0,0.00,,,0.00,WUHU216PEETBRO,2013-06-19 12:55:00,
2013-06-19 08:00:00,74.2,0.0,0.00,NNE,22,1.0,6.1,0,0.00,,,0.00,WUHU216PEETBRO,2013-06-19 13:00:00,
2013-06-19 08:05:00,73.3,0.0,0.00,East,83,0.0,6.1,0,0.00,,,0.00,WUHU216PEETBRO,2013-06-19 13:05:00,
2013-06-19 08:10:00,73.6,0.0,0.00,NNE,16,0.0,4.8,0,0.00,,,0.00,WUHU216PEETBRO,2013-06-19 13:10:00,
2013-06-19 08:15:00,75.9,0.0,0.00,North,1,1.4,5.3,0,0.00,,,0.00,WUHU216PEETBRO,2013-06-19 13:15:00,
2013-06-19 08:20:00,74.9,0.0,0.00,North,5,3.2,5.3,0,0.00,,,0.00,WUHU216PEETBRO,2013-06-19 13:20:00,
2013-06-19 08:25:00,74.2,0.0,0.00,North,5,2.7,6.3,0,0.00,,,0.00,WUHU216PEETBRO,2013-06-19 13:25:00,
2013-06-19 08:30:00,74.9,0.0,0.00,NNE,14,3.2,6.3,0,0.00,,,0.00,WUHU216PEETBRO,2013-06-19 13:30:00,
2013-06-19 08:35:00,74.9,0.0,0.00,North,359,2.9,6.5,0,0.00,,,0.00,WUHU216PEETBRO,2013-06-19 13:35:00,
2013-06-19 08:40:00,74.9,0.0,0.00,NE,47,1.2,6.5,0,0.00,,,0.00,WUHU216PEETBRO,2013-06-19 13:40:00,
2013-06-19 08:45:00,75.5,0.0,0.00,NNE,28,2.2,5.0,0,0.00,,,0.00,WUHU216PEETBRO,2013-06-19 13:45:00,
2013-06-19 08:50:00,77.1,0.0,0.00,North,351,2.4,4.8,0,0.00,,,0.00,WUHU216PEETBRO,2013-06-19 13:50:00,
2013-06-19 08:55:00,76.2,0.0,0.00,NNW,334,0.0,4.0,0,0.00,,,0.00,WUHU216PEETBRO,2013-06-19 13:55:00,
2013-06-19 09:00:00,76.8,0.0,0.00,NNE,33,0.0,4.1,0,0.00,,,0.00,WUHU216PEETBRO,2013-06-19 14:00:00,
2013-06-19 09:05:00,81.5,0.0,0.00,East,97,1.3,4.4,0,0.00,,,0.00,WUHU216PEETBRO,2013-06-19 14:05:00,
2013-06-19 09:10:00,83.4,0.0,0.00,ESE,107,0.7,5.7,0,0.00,,,0.00,WUHU216PEETBRO,2013-06-19 14:10:00,
2013-06-19 09:15:00,82.4,0.0,0.00,NE,40,0.0,5.7,0,0.00,,,0.00,WUHU216PEETBRO,2013-06-19 14:15:00,
2013-06-19 09:20:00,84.4,0.0,0.00,NNE,28,0.0,4.0,0,0.00,,,0.00,WUHU216PEETBRO,2013-06-19 14:20:00,
2013-06-19 09:25:00,82.8,0.0,0.00,NNE,26,1.9,3.0,0,0.00,,,0.00,WUHU216PEETBRO,2013-06-19 14:25:00,
2013-06-19 09:28:00,78.7,0.0,0.00,ESE,121,2.4,4.0,0,0.00,,,0.00,WUHU216PEETBRO,2013-06-19 14:28:00,
2013-06-19 09:30:00,78.8,0.0,0.00,SSE,162,1.6,4.0,0,0.00,,,0.00,WUHU216PEETBRO,2013-06-19 14:30:00,
2013-06-19 09:36:00,78.9,0.0,0.00,SSE,165,2.4,4.0,0,0.00,,,0.00,WUHU216PEETBRO,2013-06-19 14:36:00,
2013-06-19 09:41:00,81.7,0.0,0.00,East,86,0.0,2.4,0,0.00,,,0.00,WUHU216PEETBRO,2013-06-19 14:41:00,
2013-06-19 09:46:00,83.4,0.0,0.00,SSW,206,0.0,2.3,0,0.00,,,0.00,WUHU216PEETBRO,2013-06-19 14:46:00,
2013-06-19 09:51:00,82.1,0.0,0.00,East,93,3.7,3.7,0,0.00,,,0.00,WUHU216PEETBRO,2013-06-19 14:51:00,
2013-06-19 09:56:00,82.4,0.0,0.00,SW,224,0.0,4.3,0,0.00,,,0.00,WUHU216PEETBRO,2013-06-19 14:56:00,
2013-06-19 10:01:00,85.8,0.0,0.00,WSW,245,2.0,4.3,0,0.00,,,0.00,WUHU216PEETBRO,2013-06-19 15:01:00,
2013-06-19 10:06:00,80.5,0.0,0.00,ENE,70,2.2,4.9,0,0.00,,,0.00,WUHU216PEETBRO,2013-06-19 15:06:00,
2013-06-19 10:11:00,83.2,0.0,0.00,ENE,71,0.0,4.9,0,0.00,,,0.00,WUHU216PEETBRO,2013-06-19 15:11:00,
2013-06-19 10:16:00,84.6,0.0,0.00,East,91,0.0,3.9,0,0.00,,,0.00,WUHU216PEETBRO,2013-06-19 15:16:00,
2013-06-19 10:21:00,97.9,0.0,0.00,North,354,1.4,3.9,0,0.00,,,0.00,WUHU216PEETBRO,2013-06-19 15:21:00,
2013-06-19 10:26:00,92.1,0.0,0.00,SW,218,2.6,4.2,0,0.00,,,0.00,WUHU216PEETBRO,2013-06-19 15:26:00,
2013-06-19 10:31:00,89.7,0.0,0.00,SW,230,3.0,6.6,0,0.00,,,0.00,WUHU216PEETBRO,2013-06-19 15:31:00,
2013-06-19 10:36:00,90.6,0.0,0.00,NNE,15,3.0,6.6,0,0.00,,,0.00,WUHU216PEETBRO,2013-06-19 15:36:00,
2013-06-19 10:41:00,95.1,0.0,0.00,North,351,0.0,6.6,0,0.00,,,0.00,WUHU216PEETBRO,2013-06-19 15:41:00,
2013-06-19 10:46:00,91.8,0.0,0.00,SSW,199,3.2,6.6,0,0.00,,,0.00,WUHU216PEETBRO,2013-06-19 15:46:00,
2013-06-19 10:51:00,90.1,0.0,0.00,WNW,290,3.0,5.0,0,0.00,,,0.00,WUHU216PEETBRO,2013-06-19 15:51:00,
2013-06-19 10:56:00,88.5,0.0,0.00,ENE,62,0.7,5.2,0,0.00,,,0.00,WUHU216PEETBRO,2013-06-19 15:56:00,
2013-06-19 11:01:00,88.5,0.0,0.00,NW,307,1.2,5.2,0,0.00,,,0.00,WUHU216PEETBRO,2013-06-19 16:01:00,
2013-06-19 11:06:00,89.7,0.0,0.00,NNE,21,3.4,4.6,0,0.00,,,0.00,WUHU216PEETBRO,2013-06-19 16:06:00,
2013-06-19 11:11:00,90.6,0.0,0.00,NNE,31,0.0,4.6,0,0.00,,,0.00,WUHU216PEETBRO,2013-06-19 16:11:00,
2013-06-19 11:16:00,85.8,0.0,0.00,WNW,290,3.2,4.4,0,0.00,,,0.00,WUHU216PEETBRO,2013-06-19 16:16:00,
2013-06-19 11:21:00,84.4,0.0,0.00,SSW,204,1.2,6.8,0,0.00,,,0.00,WUHU216PEETBRO,2013-06-19 16:21:00,
2013-06-19 11:26:00,86.2,0.0,0.00,SW,231,2.7,6.8,0,0.00,,,0.00,WUHU216PEETBRO,2013-06-19 16:26:00,
2013-06-19 11:31:00,85.5,0.0,0.00,SSW,207,1.7,3.8,0,0.00,,,0.00,WUHU216PEETBRO,2013-06-19 16:31:00,
2013-06-19 11:36:00,85.8,0.0,0.00,WSW,237,3.0,4.0,0,0.00,,,0.00,WUHU216PEETBRO,2013-06-19 16:36:00,
2013-06-19 11:41:00,89.2,0.0,0.00,WSW,251,2.3,4.0,0,0.00,,,0.00,WUHU216PEETBRO,2013-06-19 16:41:00,
2013-06-19 11:46:00,90.6,0.0,0.00,SSE,160,0.7,4.3,0,0.00,,,0.00,WUHU216PEETBRO,2013-06-19 16:46:00,
2013-06-19 11:51:00,91.1,0.0,0.00,East,94,4.7,4.8,0,0.00,,,0.00,WUHU216PEETBRO,2013-06-19 16:51:00,
2013-06-19 11:56:00,84.5,0.0,0.00,East,90,1.6,6.6,0,0.00,,,0.00,WUHU216PEETBRO,2013-06-19 16:56:00,
2013-06-19 12:01:00,98.3,0.0,0.00,North,5,2.3,6.6,0,0.00,,,0.00,WUHU216PEETBRO,2013-06-19 17:01:00,
2013-06-19 12:06:00,95.1,0.0,0.00,NNW,335,1.7,4.9,0,0.00,,,0.00,WUHU216PEETBRO,2013-06-19 17:06:00,
2013-06-19 12:11:00,92.6,0.0,0.00,North,0,2.2,5.2,0,0.00,,,0.00,WUHU216PEETBRO,2013-06-19 17:11:00,
2013-06-19 12:16:00,96.0,0.0,0.00,SSW,208,3.2,5.2,0,0.00,,,0.00,WUHU216PEETBRO,2013-06-19 17:16:00,
2013-06-19 12:21:00,90.0,0.0,0.00,SW,228,3.4,7.3,0,0.00,,,0.00,WUHU216PEETBRO,2013-06-19 17:21:00,
2013-06-19 12:26:00,88.5,0.0,0.00,WSW,254,3.9,7.3,0,0.00,,,0.00,WUHU216PEETBRO,2013-06-19 17:26:00,
2013-06-19 12:31:00,89.2,0.0,0.00,SE,127,1.7,5.5,0,0.00,,,0.00,WUHU216PEETBRO,2013-06-19 17:31:00,
2013-06-19 12:36:00,86.2,0.0,0.00,East,95,4.5,6.0,0,0.00,,,0.00,WUHU216PEETBRO,2013-06-19 17:36:00,
2013-06-19 12:41:00,88.1,0.0,0.00,SSE,151,2.8,6.0,0,0.00,,,0.00,WUHU216PEETBRO,2013-06-19 17:41:00,
2013-06-19 12:46:00,86.6,0.0,0.00,ESE,118,2.8,6.0,0,0.00,,,0.00,WUHU216PEETBRO,2013-06-19 17:46:00,
2013-06-19 12:51:00,86.6,0.0,0.00,SE,128,1.8,6.0,0,0.00,,,0.00,WUHU216PEETBRO,2013-06-19 17:51:00,
2013-06-19 12:56:00,88.5,0.0,0.00,South,191,1.3,4.6,0,0.00,,,0.00,WUHU216PEETBRO,2013-06-19 17:56:00,
2013-06-19 13:01:00,88.8,0.0,0.00,SE,125,0.0,7.0,0,0.00,,,0.00,WUHU216PEETBRO,2013-06-19 18:01:00,
2013-06-19 13:06:00,87.7,0.0,0.00,SSE,153,0.0,7.0,0,0.00,,,0.00,WUHU216PEETBRO,2013-06-19 18:06:00,
2013-06-19 13:11:00,84.5,0.0,0.00,East,100,2.2,6.2,0,0.00,,,0.00,WUHU216PEETBRO,2013-06-19 18:11:00,
2013-06-19 13:16:00,82.4,0.0,0.00,SE,128,4.7,5.7,0,0.00,,,0.00,WUHU216PEETBRO,2013-06-19 18:16:00,
2013-06-19 13:21:00,82.4,0.0,0.00,ESE,114,4.5,6.9,0,0.00,,,0.00,WUHU216PEETBRO,2013-06-19 18:21:00,
2013-06-19 13:26:00,84.3,0.0,0.00,ESE,111,5.3,6.9,0,0.00,,,0.00,WUHU216PEETBRO,2013-06-19 18:26:00,
2013-06-19 13:31:00,83.2,0.0,0.00,ENE,66,4.2,5.9,0,0.00,,,0.00,WUHU216PEETBRO,2013-06-19 18:31:00,
2013-06-19 13:36:00,92.6,0.0,0.00,ENE,62,3.2,5.7,0,0.00,,,0.00,WUHU216PEETBRO,2013-06-19 18:36:00,
2013-06-19 13:41:00,86.9,0.0,0.00,East,91,1.2,5.6,0,0.00,,,0.00,WUHU216PEETBRO,2013-06-19 18:41:00,
2013-06-19 13:46:00,85.5,0.0,0.00,East,80,0.4,5.6,0,0.00,,,0.00,WUHU216PEETBRO,2013-06-19 18:46:00,
2013-06-19 13:51:00,83.5,0.0,0.00,South,186,4.7,6.7,0,0.00,,,0.00,WUHU216PEETBRO,2013-06-19 18:51:00,
2013-06-19 13:56:00,84.6,0.0,0.00,WSW,248,5.8,7.0,0,0.00,,,0.00,WUHU216PEETBRO,2013-06-19 18:56:00,
2013-06-19 14:01:00,85.1,0.0,0.00,West,262,3.6,8.0,0,0.00,,,0.00,WUHU216PEETBRO,2013-06-19 19:01:00,
2013-06-19 14:06:00,85.2,0.0,0.00,WSW,245,4.7,8.0,0,0.00,,,0.00,WUHU216PEETBRO,2013-06-19 19:06:00,
2013-06-19 14:11:00,82.4,0.0,0.00,West,263,3.3,6.8,0,0.00,,,0.00,WUHU216PEETBRO,2013-06-19 19:11:00,
2013-06-19 14:16:00,82.4,0.0,0.00,WNW,302,1.1,5.3,0,0.00,,,0.00,WUHU216PEETBRO,2013-06-19 19:16:00,
2013-06-19 14:21:00,76.8,0.0,0.00,WNW,285,2.7,4.2,0,0.04,,,0.04,WUHU216PEETBRO,2013-06-19 19:21:00,
2013-06-19 14:26:00,76.8,0.0,0.00,WSW,258,1.7,3.6,0,0.06,,,0.06,WUHU216PEETBRO,2013-06-19 19:26:00,
2013-06-19 14:31:00,76.8,0.0,0.00,WNW,292,2.1,5.2,0,0.06,,,0.06,WUHU216PEETBRO,2013-06-19 19:31:00,
2013-06-19 14:36:00,77.9,0.0,0.00,WNW,293,2.0,5.2,0,0.06,,,0.06,WUHU216PEETBRO,2013-06-19 19:36:00,
2013-06-19 14:41:00,76.8,0.0,0.00,NNW,328,2.1,5.2,0,0.07,,,0.07,WUHU216PEETBRO,2013-06-19 19:41:00,
2013-06-19 14:46:00,77.1,0.0,0.00,WSW,255,0.0,4.3,0,0.08,,,0.08,WUHU216PEETBRO,2013-06-19 19:46:00,
2013-06-19 14:51:00,76.8,0.0,0.00,WSW,238,0.4,2.7,0,0.08,,,0.08,WUHU216PEETBRO,2013-06-19 19:51:00,
2013-06-19 14:56:00,77.1,0.0,0.00,North,357,0.0,2.5,0,0.09,,,0.09,WUHU216PEETBRO,2013-06-19 19:56:00,
2013-06-19 15:01:00,78.9,0.0,0.00,WSW,247,2.5,2.5,0,0.09,,,0.09,WUHU216PEETBRO,2013-06-19 20:01:00,
2013-06-19 15:06:00,79.4,0.0,0.00,ESE,104,3.1,4.0,0,0.09,,,0.09,WUHU216PEETBRO,2013-06-19 20:06:00,
2013-06-19 15:11:00,79.2,0.0,0.00,SE,138,0.9,5.5,0,0.09,,,0.09,WUHU216PEETBRO,2013-06-19 20:11:00,
2013-06-19 15:16:00,79.8,0.0,0.00,NE,47,1.1,6.2,0,0.09,,,0.09,WUHU216PEETBRO,2013-06-19 20:16:00,
2013-06-19 15:21:00,80.5,0.0,0.00,SSE,152,0.0,6.2,0,0.05,,,0.09,WUHU216PEETBRO,2013-06-19 20:21:00,
2013-06-19 15:26:00,79.4,0.0,0.00,West,259,1.2,3.7,0,0.03,,,0.09,WUHU216PEETBRO,2013-06-19 20:26:00,
2013-06-19 15:31:00,78.9,0.0,0.00,ESE,112,1.2,4.3,0,0.03,,,0.09,WUHU216PEETBRO,2013-06-19 20:31:00,
2013-06-19 15:36:00,78.9,0.0,0.00,WSW,241,0.8,4.7,0,0.03,,,0.09,WUHU216PEETBRO,2013-06-19 20:36:00,
2013-06-19 15:41:00,79.2,0.0,0.00,WSW,242,1.3,4.7,0,0.02,,,0.09,WUHU216PEETBRO,2013-06-19 20:41:00,
2013-06-19 15:46:00,79.9,0.0,0.00,West,259,2.2,3.8,0,0.01,,,0.09,WUHU216PEETBRO,2013-06-19 20:46:00,
2013-06-19 15:51:00,80.6,0.0,0.00,SW,224,2.4,4.2,0,0.01,,,0.09,WUHU216PEETBRO,2013-06-19 20:51:00,
2013-06-19 15:56:00,80.5,0.0,0.00,SSE,159,3.1,4.8,0,0.00,,,0.09,WUHU216PEETBRO,2013-06-19 20:56:00,
2013-06-19 16:01:00,87.7,0.0,0.00,WSW,256,2.5,4.8,0,0.00,,,0.09,WUHU216PEETBRO,2013-06-19 21:01:00,
2013-06-19 16:06:00,93.4,0.0,0.00,SW,217,1.2,4.8,0,0.00,,,0.09,WUHU216PEETBRO,2013-06-19 21:06:00,
2013-06-19 16:11:00,90.0,0.0,0.00,ESE,119,1.1,6.1,0,0.00,,,0.09,WUHU216PEETBRO,2013-06-19 21:11:00,
2013-06-19 16:16:00,84.9,0.0,0.00,East,100,5.8,8.7,0,0.00,,,0.09,WUHU216PEETBRO,2013-06-19 21:16:00,
2013-06-19 16:21:00,82.4,0.0,0.00,SSE,162,3.4,11.2,0,0.00,,,0.09,WUHU216PEETBRO,2013-06-19 21:21:00,
2013-06-19 16:26:00,84.6,0.0,0.00,SW,231,4.0,11.2,0,0.00,,,0.09,WUHU216PEETBRO,2013-06-19 21:26:00,
2013-06-19 16:31:00,83.5,0.0,0.00,SSW,201,3.1,8.2,0,0.00,,,0.09,WUHU216PEETBRO,2013-06-19 21:31:00,
2013-06-19 16:36:00,83.5,0.0,0.00,WNW,283,2.5,7.6,0,0.00,,,0.09,WUHU216PEETBRO,2013-06-19 21:36:00,
2013-06-19 16:41:00,83.9,0.0,0.00,WNW,283,2.8,7.6,0,0.00,,,0.09,WUHU216PEETBRO,2013-06-19 21:41:00,
2013-06-19 16:46:00,84.6,0.0,0.00,WSW,251,6.5,9.9,0,0.00,,,0.09,WUHU216PEETBRO,2013-06-19 21:46:00,
2013-06-19 16:51:00,86.6,0.0,0.00,West,266,7.6,9.9,0,0.00,,,0.09,WUHU216PEETBRO,2013-06-19 21:51:00,
2013-06-19 16:56:00,83.9,0.0,0.00,NW,313,5.2,7.6,0,0.00,,,0.09,WUHU216PEETBRO,2013-06-19 21:56:00,
2013-06-19 17:01:00,86.6,0.0,0.00,SW,234,3.5,7.6,0,0.00,,,0.09,WUHU216PEETBRO,2013-06-19 22:01:00,
2013-06-19 17:06:00,86.9,0.0,0.00,WSW,256,7.8,8.9,0,0.00,,,0.09,WUHU216PEETBRO,2013-06-19 22:06:00,
2013-06-19 17:11:00,86.2,0.0,0.00,WSW,249,6.5,8.9,0,0.00,,,0.09,WUHU216PEETBRO,2013-06-19 22:11:00,
2013-06-19 17:16:00,85.5,0.0,0.00,SSW,210,8.4,8.6,0,0.00,,,0.09,WUHU216PEETBRO,2013-06-19 22:16:00,
2013-06-19 17:21:00,85.0,0.0,0.00,West,271,4.1,8.9,0,0.00,,,0.09,WUHU216PEETBRO,2013-06-19 22:21:00,
2013-06-19 17:26:00,82.1,0.0,0.00,WSW,255,4.2,8.9,0,0.00,,,0.09,WUHU216PEETBRO,2013-06-19 22:26:00,
2013-06-19 17:31:00,82.4,0.0,0.00,West,268,0.0,8.3,0,0.00,,,0.09,WUHU216PEETBRO,2013-06-19 22:31:00,
2013-06-19 17:36:00,83.5,0.0,0.00,WNW,283,1.7,6.5,0,0.00,,,0.09,WUHU216PEETBRO,2013-06-19 22:36:00,
2013-06-19 17:40:00,82.1,0.0,0.00,WSW,249,0.0,2.9,0,0.00,,,0.09,WUHU216PEETBRO,2013-06-19 22:40:00,
2013-06-19 17:46:00,81.5,0.0,0.00,SW,220,1.7,3.3,0,0.00,,,0.09,WUHU216PEETBRO,2013-06-19 22:46:00,
2013-06-19 17:51:00,81.5,0.0,0.00,WNW,299,4.1,5.0,0,0.00,,,0.09,WUHU216PEETBRO,2013-06-19 22:51:00,
2013-06-19 17:56:00,81.5,0.0,0.00,West,265,0.0,5.0,0,0.00,,,0.09,WUHU216PEETBRO,2013-06-19 22:56:00,
2013-06-19 18:01:00,80.6,0.0,0.00,NW,311,3.5,4.7,0,0.00,,,0.09,WUHU216PEETBRO,2013-06-19 23:01:00,
2013-06-19 18:06:00,82.4,0.0,0.00,WSW,238,2.9,5.2,0,0.00,,,0.09,WUHU216PEETBRO,2013-06-19 23:06:00,
2013-06-19 18:11:00,82.4,0.0,0.00,West,261,3.2,5.2,0,0.00,,,0.09,WUHU216PEETBRO,2013-06-19 23:11:00,
2013-06-19 18:15:00,83.5,0.0,0.00,WSW,252,3.3,5.3,0,0.00,,,0.09,WUHU216PEETBRO,2013-06-19 23:15:00,
2013-06-19 18:20:00,84.3,0.0,0.00,SW,235,3.0,5.3,0,0.00,,,0.09,WUHU216PEETBRO,2013-06-19 23:20:00,
2013-06-19 18:25:00,81.5,0.0,0.00,WSW,237,4.3,6.2,0,0.00,,,0.09,WUHU216PEETBRO,2013-06-19 23:25:00,
2013-06-19 18:30:00,81.7,0.0,0.00,WNW,302,3.3,6.2,0,0.00,,,0.09,WUHU216PEETBRO,2013-06-19 23:30:00,
2013-06-19 18:35:00,83.2,0.0,0.00,WSW,256,1.2,5.0,0,0.00,,,0.09,WUHU216PEETBRO,2013-06-19 23:35:00,
2013-06-19 18:40:00,81.5,0.0,0.00,SW,232,2.1,3.4,0,0.00,,,0.09,WUHU216PEETBRO,2013-06-19 23:40:00,
2013-06-19 18:45:00,81.7,0.0,0.00,WSW,254,1.9,4.9,0,0.00,,,0.09,WUHU216PEETBRO,2013-06-19 23:45:00,
2013-06-19 18:50:00,82.1,0.0,0.00,WSW,242,2.2,4.9,0,0.00,,,0.09,WUHU216PEETBRO,2013-06-19 23:50:00,
2013-06-19 18:55:00,81.5,0.0,0.00,SW,224,0.0,4.0,0,0.00,,,0.09,WUHU216PEETBRO,2013-06-19 23:55:00,
2013-06-19 19:00:00,80.5,0.0,0.00,SW,224,0.0,2.3,0,0.00,,,0.09,WUHU216PEETBRO,2013-06-20 00:00:00,
2013-06-19 19:05:00,80.6,0.0,0.00,WNW,299,1.9,4.2,0,0.00,,,0.09,WUHU216PEETBRO,2013-06-20 00:05:00,
2013-06-19 19:10:00,82.4,0.0,0.00,NW,311,2.4,4.2,0,0.00,,,0.09,WUHU216PEETBRO,2013-06-20 00:10:00,
2013-06-19 19:15:00,81.7,0.0,0.00,WSW,239,0.3,4.1,0,0.00,,,0.09,WUHU216PEETBRO,2013-06-20 00:15:00,
2013-06-19 19:20:00,80.6,0.0,0.00,SSW,210,2.6,3.0,0,0.00,,,0.09,WUHU216PEETBRO,2013-06-20 00:20:00,
2013-06-19 19:25:00,80.2,0.0,0.00,WSW,251,2.6,3.0,0,0.00,,,0.09,WUHU216PEETBRO,2013-06-20 00:25:00,
2013-06-19 19:30:00,81.5,0.0,0.00,NW,320,2.0,3.2,0,0.00,,,0.09,WUHU216PEETBRO,2013-06-20 00:30:00,
2013-06-19 19:35:00,80.5,0.0,0.00,West,269,3.2,3.2,0,0.00,,,0.09,WUHU216PEETBRO,2013-06-20 00:35:00,
2013-06-19 19:40:00,79.9,0.0,0.00,WSW,242,2.2,4.1,0,0.00,,,0.09,WUHU216PEETBRO,2013-06-20 00:40:00,
2013-06-19 19:45:00,77.9,0.0,0.00,WSW,249,1.9,4.1,0,0.00,,,0.09,WUHU216PEETBRO,2013-06-20 00:45:00,
2013-06-19 19:50:00,78.1,0.0,0.00,SSW,207,0.0,3.9,0,0.00,,,0.09,WUHU216PEETBRO,2013-06-20 00:50:00,
2013-06-19 19:55:00,77.9,0.0,0.00,SSW,207,0.0,2.2,0,0.00,,,0.09,WUHU216PEETBRO,2013-06-20 00:55:00,
2013-06-19 20:00:00,77.1,0.0,0.00,SSW,207,0.0,0.0,0,0.00,,,0.09,WUHU216PEETBRO,2013-06-20 01:00:00,
2013-06-19 20:05:00,76.8,0.0,0.00,SSW,207,0.0,0.0,0,0.00,,,0.09,WUHU216PEETBRO,2013-06-20 01:05:00,
2013-06-19 20:10:00,76.8,0.0,0.00,SSW,207,0.0,0.0,0,0.00,,,0.09,WUHU216PEETBRO,2013-06-20 01:10:00,
2013-06-19 20:15:00,75.5,0.0,0.00,SSW,207,0.0,0.0,0,0.00,,,0.09,WUHU216PEETBRO,2013-06-20 01:15:00,
2013-06-19 20:20:00,76.0,0.0,0.00,SSW,207,0.0,0.0,0,0.00,,,0.09,WUHU216PEETBRO,2013-06-20 01:20:00,
2013-06-19 20:25:00,76.2,0.0,0.00,SSW,207,0.0,0.0,0,0.00,,,0.09,WUHU216PEETBRO,2013-06-20 01:25:00,
2013-06-19 20:30:00,75.9,0.0,0.00,SSW,207,0.0,0.0,0,0.00,,,0.09,WUHU216PEETBRO,2013-06-20 01:30:00,
2013-06-19 20:35:00,75.9,0.0,0.00,West,262,0.3,9.3,0,0.00,,,0.09,WUHU216PEETBRO,2013-06-20 01:35:00,
2013-06-19 20:40:00,74.9,0.0,0.00,WSW,254,1.0,9.3,0,0.00,,,0.09,WUHU216PEETBRO,2013-06-20 01:40:00,
2013-06-19 20:45:00,74.9,0.0,0.00,SSW,201,0.0,1.9,0,0.00,,,0.09,WUHU216PEETBRO,2013-06-20 01:45:00,
2013-06-19 20:50:00,74.6,0.0,0.00,SSW,201,0.0,0.9,0,0.00,,,0.09,WUHU216PEETBRO,2013-06-20 01:50:00,
2013-06-19 20:55:00,73.9,0.0,0.00,SSW,201,0.0,0.0,0,0.00,,,0.09,WUHU216PEETBRO,2013-06-20 01:55:00,
2013-06-19 21:00:00,73.9,0.0,0.00,SSW,201,0.0,0.0,0,0.00,,,0.09,WUHU216PEETBRO,2013-06-20 02:00:00,
2013-06-19 21:05:00,73.3,0.0,0.00,SSW,201,0.0,0.0,0,0.00,,,0.09,WUHU216PEETBRO,2013-06-20 02:05:00,
2013-06-19 21:10:00,74.2,0.0,0.00,SSW,201,0.0,0.0,0,0.00,,,0.09,WUHU216PEETBRO,2013-06-20 02:10:00,
2013-06-19 21:15:00,74.6,0.0,0.00,SE,141,0.5,0.7,0,0.00,,,0.09,WUHU216PEETBRO,2013-06-20 02:15:00,
2013-06-19 21:20:00,73.9,0.0,0.00,East,95,1.4,1.8,0,0.00,,,0.09,WUHU216PEETBRO,2013-06-20 02:20:00,
2013-06-19 21:25:00,73.9,0.0,0.00,NE,43,0.0,1.9,0,0.00,,,0.09,WUHU216PEETBRO,2013-06-20 02:25:00,
2013-06-19 21:30:00,73.9,0.0,0.00,NE,43,0.0,1.9,0,0.00,,,0.09,WUHU216PEETBRO,2013-06-20 02:30:00,
2013-06-19 21:35:00,73.5,0.0,0.00,NE,43,0.0,0.0,0,0.00,,,0.09,WUHU216PEETBRO,2013-06-20 02:35:00,
2013-06-19 21:40:00,73.3,0.0,0.00,NE,43,0.0,0.0,0,0.00,,,0.09,WUHU216PEETBRO,2013-06-20 02:40:00,
2013-06-19 21:45:00,73.4,0.0,0.00,NE,43,0.0,0.0,0,0.00,,,0.09,WUHU216PEETBRO,2013-06-20 02:45:00,
2013-06-19 21:50:00,73.4,0.0,0.00,ESE,117,0.0,0.9,0,0.00,,,0.09,WUHU216PEETBRO,2013-06-20 02:50:00,
2013-06-19 21:55:00,72.9,0.0,0.00,ESE,117,0.0,0.9,0,0.00,,,0.09,WUHU216PEETBRO,2013-06-20 02:55:00,
2013-06-19 22:00:00,73.6,0.0,0.00,ESE,117,0.0,0.0,0,0.00,,,0.09,WUHU216PEETBRO,2013-06-20 03:00:00,
2013-06-19 22:05:00,72.9,0.0,0.00,ESE,117,0.0,0.0,0,0.00,,,0.09,WUHU216PEETBRO,2013-06-20 03:05:00,
2013-06-19 22:10:00,72.2,0.0,0.00,ESE,117,0.0,0.0,0,0.00,,,0.09,WUHU216PEETBRO,2013-06-20 03:10:00,
2013-06-19 22:15:00,72.0,0.0,0.00,ESE,117,0.0,0.0,0,0.00,,,0.09,WUHU216PEETBRO,2013-06-20 03:15:00,
2013-06-19 22:20:00,72.6,0.0,0.00,ESE,117,0.0,0.0,0,0.00,,,0.09,WUHU216PEETBRO,2013-06-20 03:20:00,
2013-06-19 22:25:00,72.6,0.0,0.00,ESE,117,0.0,0.0,0,0.00,,,0.09,WUHU216PEETBRO,2013-06-20 03:25:00,
2013-06-19 22:30:00,72.3,0.0,0.00,ESE,117,0.0,0.0,0,0.00,,,0.09,WUHU216PEETBRO,2013-06-20 03:30:00,
2013-06-19 22:35:00,71.7,0.0,0.00,ESE,117,0.0,0.0,0,0.00,,,0.09,WUHU216PEETBRO,2013-06-20 03:35:00,
2013-06-19 22:40:00,72.0,0.0,0.00,ESE,117,0.0,0.0,0,0.00,,,0.09,WUHU216PEETBRO,2013-06-20 03:40:00,
2013-06-19 22:45:00,71.4,0.0,0.00,ESE,117,0.0,0.0,0,0.00,,,0.09,WUHU216PEETBRO,2013-06-20 03:45:00,
2013-06-19 22:50:00,71.7,0.0,0.00,ESE,117,0.0,0.0,0,0.00,,,0.09,WUHU216PEETBRO,2013-06-20 03:50:00,
2013-06-19 22:55:00,71.7,0.0,0.00,ESE,117,0.0,0.0,0,0.00,,,0.09,WUHU216PEETBRO,2013-06-20 03:55:00,
2013-06-19 23:00:00,71.4,0.0,0.00,ESE,117,0.0,0.0,0,0.00,,,0.09,WUHU216PEETBRO,2013-06-20 04:00:00,
2013-06-19 23:01:00,71.3,0.0,0.00,ESE,117,0.0,0.0,0,0.00,,,0.09,WUHU216PEETBRO,2013-06-20 04:01:00,
2013-06-19 23:06:00,70.5,0.0,0.00,ESE,117,0.0,0.0,0,0.00,,,0.09,WUHU216PEETBRO,2013-06-20 04:06:00,
2013-06-19 23:11:00,70.5,0.0,0.00,ESE,117,0.0,0.0,0,0.00,,,0.09,WUHU216PEETBRO,2013-06-20 04:11:00,
2013-06-19 23:16:00,72.0,0.0,0.00,ESE,117,0.0,0.0,0,0.00,,,0.09,WUHU216PEETBRO,2013-06-20 04:16:00,
2013-06-19 23:21:00,71.1,0.0,0.00,ESE,117,0.0,0.0,0,0.00,,,0.09,WUHU216PEETBRO,2013-06-20 04:21:00,
2013-06-19 23:26:00,72.0,0.0,0.00,ESE,117,0.0,0.0,0,0.00,,,0.09,WUHU216PEETBRO,2013-06-20 04:26:00,
2013-06-19 23:31:00,71.7,0.0,0.00,ESE,117,0.0,0.0,0,0.00,,,0.09,WUHU216PEETBRO,2013-06-20 04:31:00,
2013-06-19 23:36:00,70.5,0.0,0.00,ESE,117,0.0,0.0,0,0.00,,,0.09,WUHU216PEETBRO,2013-06-20 04:36:00,
2013-06-19 23:41:00,70.2,0.0,0.00,ESE,117,0.0,0.0,0,0.00,,,0.09,WUHU216PEETBRO,2013-06-20 04:41:00,
2013-06-19 23:46:00,70.5,0.0,0.00,ESE,117,0.0,0.0,0,0.00,,,0.09,WUHU216PEETBRO,2013-06-20 04:46:00,
2013-06-19 23:51:00,71.1,0.0,0.00,ESE,117,0.0,0.0,0,0.00,,,0.09,WUHU216PEETBRO,2013-06-20 04:51:00,
2013-06-19 23:56:00,70.8,0.0,0.00,ESE,117,0.0,0.0,0,0.00,,,0.09,WUHU216PEETBRO,2013-06-20 04:56:00,